Location: Casone le Fosse
(44.6547°N, 12.1103°E)
Time: 04:19:50
(UTC+00:00)

Timation 1 Rocket - Pass Details

Date: 29 October 2020
Orbit: 896 x 911 km, 70.0° (Epoch: 01 December)

Event Time Altitude Azimuth Distance (km) Brightness Sun altitude
Rises 17:34:19 0° 335° (NNW) 3,548 7.7 -16.5°
Reaches altitude 10° 17:36:54 10° 340° (NNW) 2,605 6.9 -17.0°
Maximum altitude 17:42:48 53° 58° (ENE) 1,107 4.5 -18.0°
Enters shadow 17:46:18 24° 125° (SE) 1,788 5.4 -18.7°
